Location: Unspecified
(51.0950°N, 12.9690°E)
Time: 22:41:40
(UTC+00:00)

H-2A R/B - Pass Details

Date: 28 October 2021
Orbit: 577 x 654 km, 98.5° (Epoch: 01 December)

Event Time Altitude Azimuth Distance (km) Brightness Sun altitude
Exits shadow 18:20:21 17° 188° (S) 1,537 4.0 -24.2°
Drops below altitude 10° 18:21:22 10° 189° (S) 1,947 4.6 -24.4°
Sets 18:23:33 0° 192° (SSW) 2,859 5.5 -24.7°
